BKKGT12 KNKX-KNZY

Flight info

Callsign BKKGT12
Flight time 0h 10m
Altitude 3000
Route DCT
Aircraft VF35/M-SDFIRY/LB1

Departure

Time 2026-04-24 02:13
Airport Miramar Marine Corps Air Station - Mitscher Field (KNKX)

Arrival

Time 2026-04-24 02:24
Airport North Island Naval Air Station-Halsey Field (KNZY)
Time Latitude Longitude Altitude Speed Heading
2026-04-24 02:07 32.87460 -117.13090 434 ft 0 kts 300°
2026-04-24 02:10 32.87461 -117.13090 434 ft 3 kts 315°
2026-04-24 02:10 32.87486 -117.13004 444 ft 26 kts 105°
2026-04-24 02:11 32.87457 -117.12789 433 ft 21 kts 159°
2026-04-24 02:11 32.87356 -117.12761 451 ft 0 kts 194°
2026-04-24 02:12 32.87322 -117.12770 453 ft 27 kts 197°
2026-04-24 02:12 32.87241 -117.12888 452 ft 0 kts 254°
2026-04-24 02:13 32.87238 -117.12902 452 ft 26 kts 254°
2026-04-24 02:13 32.86993 -117.14020 560 ft 219 kts 256°
2026-04-24 02:13 32.86548 -117.15982 1416 ft 245 kts 262°
2026-04-24 02:13 32.86542 -117.17922 2089 ft 252 kts 275°
2026-04-24 02:14 32.86738 -117.20028 2580 ft 258 kts 278°
2026-04-24 02:14 32.87008 -117.22140 2795 ft 260 kts 279°
2026-04-24 02:14 32.87312 -117.24255 2844 ft 260 kts 280°
2026-04-24 02:14 32.87633 -117.26361 2842 ft 260 kts 281°
2026-04-24 02:15 32.87962 -117.28463 2758 ft 259 kts 281°
2026-04-24 02:15 32.88294 -117.30551 2599 ft 257 kts 281°
2026-04-24 02:15 32.88623 -117.32632 2432 ft 256 kts 281°
2026-04-24 02:15 32.88950 -117.34709 2332 ft 255 kts 281°
2026-04-24 02:16 32.89279 -117.36780 2319 ft 256 kts 281°
2026-04-24 02:16 32.89610 -117.38850 2322 ft 256 kts 281°
2026-04-24 02:16 32.89944 -117.40917 2273 ft 256 kts 281°
2026-04-24 02:16 32.90160 -117.42992 2117 ft 253 kts 263°
2026-04-24 02:17 32.89436 -117.44873 2058 ft 257 kts 226°
2026-04-24 02:17 32.87898 -117.45834 2390 ft 260 kts 188°
2026-04-24 02:17 32.86074 -117.45629 3161 ft 264 kts 167°
2026-04-24 02:17 32.84305 -117.45041 3922 ft 268 kts 163°
2026-04-24 02:18 32.82546 -117.44360 4515 ft 273 kts 162°
2026-04-24 02:18 32.80729 -117.43613 4790 ft 275 kts 161°
2026-04-24 02:18 32.78935 -117.42852 4900 ft 278 kts 161°
2026-04-24 02:18 32.76622 -117.41867 4995 ft 382 kts 161°
2026-04-24 02:19 32.74116 -117.40796 5020 ft 381 kts 161°
2026-04-24 02:19 32.71611 -117.39721 5032 ft 382 kts 161°
2026-04-24 02:19 32.69237 -117.38699 5016 ft 335 kts 161°
2026-04-24 02:19 32.67244 -117.37833 4995 ft 285 kts 161°
2026-04-24 02:20 32.65555 -117.37075 4970 ft 234 kts 158°
2026-04-24 02:20 32.63870 -117.36210 5009 ft 333 kts 158°
2026-04-24 02:20 32.61298 -117.34746 4971 ft 483 kts 142°
2026-04-24 02:20 32.59800 -117.30982 3015 ft 522 kts 105°
2026-04-24 02:21 32.59359 -117.26666 3004 ft 557 kts 77°
2026-04-24 02:21 32.62075 -117.24043 2032 ft 514 kts 15°
2026-04-24 02:21 32.65498 -117.22894 1413 ft 502 kts 12°
2026-04-24 02:21 32.68866 -117.21856 1582 ft 507 kts 15°
2026-04-24 02:22 32.71859 -117.21786 1259 ft 430 kts 291°
2026-04-24 02:22 32.70195 -117.22728 724 ft 335 kts 172°
2026-04-24 02:22 32.68347 -117.22775 1230 ft 239 kts 191°
2026-04-24 02:22 32.66980 -117.23090 697 ft 166 kts 191°
2026-04-24 02:23 32.65898 -117.22912 516 ft 174 kts 131°
2026-04-24 02:23 32.66323 -117.21981 469 ft 198 kts 357°
2026-04-24 02:23 32.67861 -117.22124 222 ft 231 kts
2026-04-24 02:23 32.69272 -117.21735 26 ft 165 kts 15°
2026-04-24 02:24 32.69904 -117.21531 24 ft 52 kts 15°
2026-04-24 02:24 32.70119 -117.21459 25 ft 45 kts 15°
2026-04-24 02:24 32.70186 -117.21365 27 ft 13 kts 125°
2026-04-24 02:24 32.70169 -117.21337 26 ft 0 kts 125°
2026-04-24 02:25 32.70110 -117.21214 27 ft 37 kts 118°
2026-04-24 02:25 32.69983 -117.20960 32 ft 34 kts 121°
2026-04-24 02:25 32.69962 -117.20877 33 ft 0 kts 108°